Weather History for KTMB - May, 2014

Change the Weather History Date:

Friday, May 2, 2014

  Actual Average (KMIA) Record (KMIA)
Temperature  
Mean Temperature 84 °F 78 °F  
Max Temperature 91 °F 85 °F 93 °F (1937)
Min Temperature 75 °F 71 °F 58 °F (1940)
Degree Days  
Heating Degree Days 0 0  
Month to date heating degree days 0  
Since 1 July heating degree days 128  
Cooling Degree Days 18 13  
Month to date cooling degree days 26  
Year to date cooling degree days 919  
Growing Degree Days 34 (Base 50)    
Moisture  
Dew Point 69 °F    
Average Humidity 63    
Maximum Humidity 82    
Minimum Humidity 45    
Precipitation  
Precipitation 0.00 in 0.10 in 3.18 in (1947)
Month to date precipitation 0.20  
Year to date precipitation 10.21  
Snow  
Snow 0.00 in - - ()
Month to date snowfall  
Since 1 July snowfall  
Snow Depth -    
Sea Level Pressure  
Sea Level Pressure 29.94 in    
Wind  
Wind Speed 7 mph (South)    
Max Wind Speed 15 mph    
Max Gust Speed 22 mph    
Visibility 10 miles    
Events      
T = Trace of Precipitation, MM = Missing Value Source: NWS Daily Summary

Daily Weather History Graph

Daily Weather History Graph

Search for Another Location

Airport or City:

Trip Planner

Search our weather history database for the weather conditions in past years. The results will help you decide how hot, cold, wet, or windy it might be!

Date:

Astronomy

May. 02, 2014 Rise Set
Actual Time 6:44 AM EDT 7:53 PM EDT
Civil Twilight 6:20 AM EDT 8:17 PM EDT
Nautical Twilight 5:51 AM EDT 8:46 PM EDT
Astronomical Twilight 5:21 AM EDT 9:16 PM EDT
Moon 9:26 AM EDT (5/2) 11:08 PM EDT (5/2)
Length of Visible Light 13h 57m
Length of Day
13h 08m
Waxing Crescent, 12% of the Moon is Illuminated
May 2
Waxing Crescent
May 6
First Quarter
May 14
Full
May 21
Last Quarter
May 28
New

Hourly Weather History & Observations

Time (EDT) Temp. Heat Index Dew Point Humidity Pressure Visibility Wind Dir Wind Speed Gust Speed Precip Events Conditions
12:53 AM 80.1 °F 83.8 °F 72.0 °F 76% 29.99 in 10.0 mi SE 4.6 mph - N/A   Clear
1:53 AM 80.1 °F 83.8 °F 72.0 °F 76% 29.99 in 10.0 mi SE 4.6 mph - N/A   Clear
2:53 AM 79.0 °F - 71.1 °F 77% 29.97 in 10.0 mi SE 3.5 mph - N/A   Clear
3:53 AM 79.0 °F - 71.1 °F 77% 29.97 in 10.0 mi SSE 4.6 mph - N/A   Clear
4:53 AM 78.1 °F - 71.1 °F 79% 29.96 in 10.0 mi SSE 4.6 mph - N/A   Clear
5:53 AM 78.1 °F - 70.0 °F 76% 29.95 in 10.0 mi South 3.5 mph - N/A   Clear
6:53 AM 79.0 °F - 71.1 °F 77% 29.95 in 10.0 mi SSE 6.9 mph - N/A   Scattered Clouds
7:53 AM 80.1 °F 83.6 °F 71.1 °F 74% 29.95 in 10.0 mi SSE 5.8 mph - N/A   Scattered Clouds
8:53 AM 84.0 °F 88.4 °F 70.0 °F 63% 29.94 in 10.0 mi SSE 9.2 mph 20.7 mph N/A   Partly Cloudy
9:53 AM 84.0 °F 85.4 °F 64.0 °F 51% 29.94 in 10.0 mi South 12.7 mph 20.7 mph N/A   Clear
10:53 AM 86.0 °F 88.8 °F 66.9 °F 53% 29.94 in 10.0 mi SSE 12.7 mph 19.6 mph N/A   Clear
11:53 AM 89.1 °F 92.1 °F 66.9 °F 48% 29.96 in 10.0 mi SSE 15.0 mph 20.7 mph N/A   Scattered Clouds
12:53 PM 88.0 °F 91.4 °F 68.0 °F 51% 29.96 in 10.0 mi South 10.4 mph - N/A   Scattered Clouds
1:53 PM 90.0 °F 94.5 °F 69.1 °F 50% 29.93 in 10.0 mi South 10.4 mph 20.7 mph N/A   Partly Cloudy
2:53 PM 90.0 °F 93.6 °F 68.0 °F 48% 29.91 in 10.0 mi South 11.5 mph 21.9 mph N/A   Mostly Cloudy
3:53 PM 89.1 °F 92.1 °F 66.9 °F 48% 29.89 in 10.0 mi South 13.8 mph 19.6 mph N/A   Mostly Cloudy
4:53 PM 89.1 °F 91.0 °F 64.9 °F 45% 29.89 in 10.0 mi SSW 10.4 mph 18.4 mph N/A   Clear
5:53 PM 88.0 °F 89.3 °F 64.0 °F 45% 29.89 in 10.0 mi SSW 11.5 mph - N/A   Clear
6:53 PM 87.1 °F 88.3 °F 64.0 °F 46% 29.89 in 10.0 mi SSE 9.2 mph - N/A   Clear
7:53 PM 82.9 °F 84.6 °F 64.9 °F 54% 29.92 in 10.0 mi SW 5.8 mph - N/A   Clear
8:53 PM 82.0 °F 84.9 °F 68.0 °F 62% 29.93 in 10.0 mi SSW 3.5 mph - N/A   Clear
9:53 PM 81.0 °F 84.1 °F 69.1 °F 67% 29.94 in 10.0 mi SSW 3.5 mph - N/A   Clear
10:53 PM 77.0 °F - 70.0 °F 79% 29.96 in 10.0 mi WNW 3.5 mph - N/A   Clear
11:53 PM 75.9 °F - 70.0 °F 82% 29.97 in 10.0 mi Calm Calm - N/A   Clear